Home > Weather > Venice > Past weeks

Flag for Italy Weather for the Past 2 Weeks in Venice, Italy

Now
64 °F

Passing clouds.


Feels Like: 64 °F
Forecast: 52 / 67 °F
Wind: 6 mph from South

Location: Venice / Tessera

Current Time: May 4, 2016 at 9:51:26 PM

Latest Report: May 4, 2016 at 8:20 PM


Visibility: N/A

Pressure: 30.01 "Hg

Humidity: 52%

Dew Point: 46 °F

Location of VeniceLocation

Historic Weather in Venice — Graph

°F

Venice Temperature Yesterday

Maximum temperature yesterday: 72 °F (at 2:20 PM)
Minimum temperature yesterday: 52 °F (at 5:50 AM)
Average temperature yesterday: 62 °F

High & Low Weather Summary for the Past Weeks

 TemperatureHumidityPressure
High72 °F (May 3, 2:20 PM)100% (Apr 24, 3:20 AM)30.33 "Hg (Apr 24, 3:20 AM)
Low43 °F (Apr 29, 3:50 AM)27% (May 4, 12:20 PM)29.50 "Hg (Apr 24, 4:50 AM)
Average57 °F68%29.91 "Hg
* Reported Apr 19 7:20 PM — May 4 7:50 PM, Venice, Weather by CustomWeather, © 2016

Note: Actual official high and low records may vary slightly from our data, if they occured in-between our weather recording intervals... More about our weather records

Advertising

Venice Weather History for the Previous 24 Hours

Scroll right to see more
 ConditionsComfort  
Time TempWeatherWind HumidityBarometerVisibility
7:50 PM
Wed, May 4
66 °FSunny.6 mph49%30.01 "Hg10 mi
7:20 PM68 °FSunny.7 mph40%30.01 "Hg10 mi
6:50 PM68 °FSunny.7 mph38%30.01 "Hg10 mi
6:20 PM70 °FSunny.8 mph33%30.01 "Hg10 mi
5:50 PM70 °FPassing clouds.9 mph35%30.01 "HgN/A
5:20 PM70 °FSunny.12 mph38%30.01 "Hg10 mi
4:50 PM70 °FPassing clouds.10 mph35%30.01 "HgN/A
4:20 PM72 °FSunny.9 mph36%30.01 "Hg10 mi
3:50 PM72 °FSunny.9 mph29%30.04 "Hg10 mi
3:20 PM70 °FPassing clouds.9 mph31%30.04 "HgN/A
2:50 PM70 °FPassing clouds.9 mph33%30.04 "HgN/A
2:20 PM70 °FSunny.9 mph31%30.04 "Hg10 mi
1:20 PM70 °FSunny.8 mph33%30.04 "Hg10 mi
12:50 PM70 °FPassing clouds.8 mph33%30.04 "HgN/A
12:20 PM70 °FPassing clouds.7 mph27%30.04 "HgN/A
11:50 AM68 °FSunny.7 mph30%30.04 "Hg10 mi
11:20 AM68 °FPassing clouds.6 mph38%30.04 "HgN/A
10:50 AM66 °FSunny.8 mph43%30.04 "Hg10 mi
9:50 AM66 °FPassing clouds.9 mph35%30.01 "HgN/A
9:20 AM64 °FPassing clouds.9 mph37%30.01 "HgN/A
8:50 AM63 °FSunny.8 mph45%30.01 "Hg10 mi
7:50 AM59 °FSunny.6 mph59%30.01 "Hg10 mi
7:20 AM55 °FSunny.7 mph77%29.98 "Hg10 mi
6:50 AM52 °FClear.7 mph88%29.98 "Hg10 mi
6:20 AM52 °FClear.6 mph94%29.98 "Hg10 mi
5:50 AM54 °FClear.7 mph88%29.98 "Hg10 mi
5:20 AM54 °FClear.6 mph82%29.98 "Hg10 mi
4:50 AM54 °FClear.7 mph88%29.95 "Hg10 mi
4:20 AM54 °FClear.8 mph88%29.95 "Hg10 mi
3:50 AM54 °FClear.7 mph82%29.95 "Hg10 mi
3:20 AM55 °FClear.6 mph82%29.95 "Hg10 mi
2:50 AM55 °FClear.7 mph82%29.95 "Hg10 mi
2:20 AM57 °FClear.5 mph72%29.95 "Hg10 mi
1:50 AM57 °FPassing clouds.8 mph72%29.95 "HgN/A
1:20 AM57 °FPassing clouds.6 mph77%29.95 "HgN/A
12:50 AM57 °FClear.8 mph77%29.95 "Hg10 mi
11:50 PM
Tue, May 3
59 °FClear.7 mph77%29.92 "Hg10 mi
11:20 PM61 °FPassing clouds.6 mph72%29.92 "HgN/A
10:50 PM63 °FPassing clouds.7 mph68%29.92 "HgN/A
10:20 PM64 °FPassing clouds.7 mph56%29.92 "HgN/A
9:50 PM63 °FPassing clouds.6 mph64%29.89 "HgN/A
9:20 PM64 °FPassing clouds.3 mph60%29.89 "HgN/A
Weather by CustomWeather, © 2016

See weather overviewHow to use our weather pages